Skip Page Navigation
NASA JPL Caltech
NASA Logo - Jet Propulsion Laboratory + View the NASA Portal
+ Center for Near-Earth Object Studies
JPL Home Earth Solar System Stars & Galaxies Technology
JPL Solar System Dynamics
BODIES ORBITS EPHEMERIDES TOOLS PHYSICAL DATA DISCOVERY FAQ SITE MAP
JPL Small-Body Database Browser
Search: [ help ]  
295656 (2008 TV7)
Classification: Main-belt Asteroid          SPK-ID: 2295656
Ephemeris | Orbit Diagram | Orbital Elements | Mission Design | Physical Parameters | Discovery Circumstances | Close-Approach Data ]

[ hide orbit diagram ]

For accurate long-term ephemerides, please instead use our Horizons system.This orbit viewer was implemented using two-body methods, and hence should not be used for determining accurate long-term trajectories (over several years or decades) or planetary encounter circumstances.


[ revert to old Java-based viewer ]

Orbital Elements at Epoch 2459000.5 (2020-May-31.0) TDB
Reference: JPL 15 (heliocentric ecliptic J2000)
 Element Value Uncertainty (1-sigma)   Units 
e .1824496762933542 5.1862e-08  
a 3.082286282467891 3.525e-08 au
q 2.519924147988178 1.6514e-07 au
i 12.82154183700222 8.7188e-06 deg
node 183.6828389072455 2.3435e-05 deg
peri 81.28255638591538 3.5092e-05 deg
M 144.771815973783 2.9425e-05 deg
tp 2458205.642258437116
(2018-Mar-28.14225844)
0.00015285 TDB
period 1976.550373689154
5.41
3.3906e-05
9.283e-08
d
yr
n .1821355047623067 3.1244e-09 deg/d
Q 3.644648416947604 4.1681e-08 au
  Orbit Determination Parameters
   # obs. used (total)      282  
   data-arc span      6845 days (18.74 yr)  
   first obs. used      2001-03-03  
   last obs. used      2019-11-29  
   planetary ephem.      DE431  
   SB-pert. ephem.      SB431-N16  
   condition code      0  
   norm. resid. RMS      .58777  
   source      ORB  
   producer      Otto Matic  
   solution date      2019-Dec-14 18:31:22  

Additional Information
 Earth MOID = 1.54495 au 
 Jupiter MOID = 1.61136 au 
 T_jup = 3.164 
[ show covariance matrix ]

Ephemeris | Orbit Diagram | Orbital Elements | Mission Design | Physical Parameters | Discovery Circumstances | Close-Approach Data ]

Physical Parameter Table
Parameter Symbol Value Units Sigma Reference Notes
absolute magnitude H 15.5   n/a MPO455185  
diameter diameter 6.723 km 2.026 urn:nasa:pds:neowise_diameters_albedos::2.0[mainbelt] (http://adsabs.harvard.edu/abs/2011ApJ...741...68M)  
geometric albedo albedo 0.021   0.005 urn:nasa:pds:neowise_diameters_albedos::2.0[mainbelt] (http://adsabs.harvard.edu/abs/2011ApJ...741...68M)  

295656 (2008 TV7)          Discovered 2008-Oct-04 by La Sagra at La Sagra
Reference: 20110912/Numbers.arcLast Updated: 2011-09-14

[ show close-approach data ]
Ephemeris | Orbit Diagram | Orbital Elements | Mission Design | Physical Parameters | Discovery Circumstances | Close-Approach Data ]
ABOUT SSD CREDITS/AWARDS PRIVACY/COPYRIGHT GLOSSARY LINKS
FirstGov 2020-Aug-13 09:49 UT
(server date/time)  
NASA Home Page
Site Manager:   Ryan S. Park
Webmaster  Alan B. Chamberlin